• In Belarus
  • List of Countries
  • For 7 days
  • Water Temperature
  • Weather Map
  • Weather Widgets
  • user-avatar
    Login

    Hourly Weather Santiago del Estero

    Today, 26 February, Wednesday

    Time Temperature Precipitation Wind Pressure Humidity
    00:00 +23°C° 0 mm 1 mps 743 mmHg 53%
    01:00 +23°C° 0 mm 1 mps 743 mmHg 54%
    02:00 +22°C° 0 mm 1 mps 744 mmHg 55%
    03:00 +20°C° 0 mm 0 mps 744 mmHg 56%
    04:00 +19°C° 0 mm 0 mps 744 mmHg 56%
    05:00 +19°C° 0 mm 0 mps 744 mmHg 57%
    06:00 +21°C° 0 mm 0 mps 744 mmHg 52%
    07:00 +25°C° 0 mm 1 mps 745 mmHg 46%
    08:00 +27°C° 0 mm 1 mps 745 mmHg 40%
    09:00 +29°C° 0 mm 1 mps 745 mmHg 36%
    10:00 +31°C° 0 mm 2 mps 745 mmHg 33%
    11:00 +32°C° 0 mm 2 mps 745 mmHg 29%
    12:00 +34°C° 0 mm 2 mps 744 mmHg 28%
    13:00 +35°C° 0 mm 2 mps 744 mmHg 27%
    14:00 +36°C° 0 mm 2 mps 743 mmHg 25%
    15:00 +36°C° 0 mm 2 mps 742 mmHg 25%
    16:00 +36°C° 0 mm 3 mps 742 mmHg 24%
    17:00 +36°C° 0 mm 3 mps 741 mmHg 23%
    18:00 +34°C° 0 mm 3 mps 741 mmHg 26%
    19:00 +30°C° 0 mm 3 mps 742 mmHg 28%
    20:00 +28°C° 0 mm 3 mps 742 mmHg 31%
    21:00 +27°C° 0 mm 3 mps 742 mmHg 33%
    22:00 +26°C° 0 mm 3 mps 743 mmHg 35%
    23:00 +25°C° 0 mm 4 mps 744 mmHg 37%

    Tomorrow, 27 February, Thursday

    Time Temperature Precipitation Wind Pressure Humidity
    00:00 +24°C° 0 mm 3 mps 743 mmHg 40%
    01:00 +23°C° 0 mm 2 mps 743 mmHg 42%
    02:00 +21°C° 0 mm 2 mps 743 mmHg 45%
    03:00 +22°C° 0 mm 1 mps 743 mmHg 47%
    04:00 +21°C° 0 mm 1 mps 743 mmHg 49%
    05:00 +20°C° 0 mm 1 mps 743 mmHg 51%
    06:00 +22°C° 0 mm 1 mps 743 mmHg 47%
    07:00 +24°C° 0 mm 1 mps 743 mmHg 43%
    08:00 +26°C° 0 mm 1 mps 744 mmHg 40%
    09:00 +28°C° 0 mm 2 mps 744 mmHg 35%
    10:00 +30°C° 0 mm 3 mps 744 mmHg 29%
    11:00 +34°C° 0 mm 3 mps 744 mmHg 24%
    12:00 +35°C° 0 mm 3 mps 743 mmHg 23%
    13:00 +36°C° 0 mm 4 mps 742 mmHg 22%
    14:00 +37°C° 0 mm 4 mps 742 mmHg 21%
    15:00 +37°C° 0 mm 4 mps 741 mmHg 21%
    16:00 +37°C° 0 mm 3 mps 740 mmHg 22%
    17:00 +37°C° 0 mm 3 mps 740 mmHg 22%
    18:00 +35°C° 0 mm 3 mps 740 mmHg 25%
    19:00 +31°C° 0 mm 3 mps 740 mmHg 29%
    20:00 +29°C° 0 mm 3 mps 740 mmHg 32%
    21:00 +28°C° 0 mm 3 mps 741 mmHg 33%
    22:00 +27°C° 0 mm 3 mps 741 mmHg 34%
    23:00 +26°C° 0 mm 4 mps 742 mmHg 35%

    Day after tomorrow, 28 February, Friday

    Time Temperature Precipitation Wind Pressure Humidity
    00:00 +25°C° 0 mm 3 mps 741 mmHg 37%
    01:00 +24°C° 0 mm 3 mps 741 mmHg 39%
    02:00 +24°C° 0 mm 2 mps 741 mmHg 42%
    03:00 +23°C° 0 mm 2 mps 741 mmHg 43%
    04:00 +23°C° 0 mm 2 mps 741 mmHg 43%
    05:00 +23°C° 0 mm 2 mps 741 mmHg 44%
    06:00 +24°C° 0 mm 2 mps 742 mmHg 42%
    07:00 +25°C° 0 mm 3 mps 743 mmHg 41%
    08:00 +26°C° 0 mm 3 mps 743 mmHg 39%
    09:00 +29°C° 0 mm 4 mps 743 mmHg 34%
    10:00 +33°C° 0 mm 4 mps 743 mmHg 28%
    11:00 +36°C° 0 mm 5 mps 743 mmHg 23%
    12:00 +37°C° 0 mm 4 mps 743 mmHg 21%
    13:00 +38°C° 0 mm 4 mps 742 mmHg 20%
    14:00 +40°C° 0 mm 4 mps 742 mmHg 18%
    15:00 +40°C° 0 mm 4 mps 741 mmHg 19%
    16:00 +39°C° 0 mm 3 mps 741 mmHg 19%
    17:00 +39°C° 0 mm 3 mps 740 mmHg 20%
    18:00 +36°C° 0 mm 3 mps 741 mmHg 23%
    19:00 +32°C° 0 mm 2 mps 741 mmHg 27%
    20:00 +30°C° 0 mm 2 mps 742 mmHg 31%
    21:00 +29°C° 0 mm 2 mps 742 mmHg 32%
    22:00 +28°C° 0 mm 3 mps 743 mmHg 33%
    23:00 +27°C° 0 mm 3 mps 743 mmHg 34%

    29 February, Saturday

    Time Temperature Precipitation Wind Pressure Humidity
    00:00 +26°C° 0 mm 2 mps 743 mmHg 36%
    01:00 +25°C° 0 mm 2 mps 743 mmHg 38%
    02:00 +24°C° 0 mm 2 mps 743 mmHg 40%
    03:00 +24°C° 0 mm 2 mps 744 mmHg 40%
    04:00 +24°C° 0 mm 2 mps 744 mmHg 41%
    05:00 +24°C° 0 mm 2 mps 744 mmHg 41%
    06:00 +25°C° 0 mm 2 mps 745 mmHg 40%
    07:00 +27°C° 0 mm 2 mps 745 mmHg 38%
    08:00 +28°C° 0 mm 2 mps 746 mmHg 37%
    09:00 +31°C° 0 mm 2 mps 746 mmHg 32%
    10:00 +34°C° 0 mm 3 mps 746 mmHg 28%
    11:00 +37°C° 0 mm 3 mps 746 mmHg 23%
    12:00 +38°C° 0 mm 3 mps 745 mmHg 21%
    13:00 +39°C° 0 mm 3 mps 745 mmHg 18%
    14:00 +40°C° 0 mm 2 mps 744 mmHg 15%
    15:00 +40°C° 0 mm 2 mps 743 mmHg 15%
    16:00 +40°C° 0 mm 2 mps 743 mmHg 15%
    17:00 +39°C° 0 mm 2 mps 742 mmHg 16%
    18:00 +36°C° 0 mm 2 mps 743 mmHg 20%
    19:00 +32°C° 0 mm 2 mps 743 mmHg 24%
    20:00 +29°C° 0 mm 2 mps 743 mmHg 28%
    21:00 +28°C° 0 mm 2 mps 744 mmHg 30%
    22:00 +27°C° 0 mm 3 mps 744 mmHg 32%
    23:00 +27°C° 0 mm 3 mps 744 mmHg 34%

    1 March, Sunday

    Time Temperature Precipitation Wind Pressure Humidity
    00:00 +26°C° 0 mm 3 mps 744 mmHg 36%
    01:00 +25°C° 0 mm 2 mps 744 mmHg 39%
    02:00 +24°C° 0 mm 2 mps 744 mmHg 42%
    03:00 +24°C° 0 mm 2 mps 744 mmHg 42%
    04:00 +24°C° 0 mm 2 mps 744 mmHg 42%
    05:00 +23°C° 0 mm 2 mps 744 mmHg 42%
    06:00 +25°C° 0 mm 2 mps 745 mmHg 41%
    07:00 +26°C° 0 mm 3 mps 745 mmHg 39%
    08:00 +28°C° 0 mm 3 mps 746 mmHg 37%
    09:00 +30°C° 0 mm 4 mps 745 mmHg 33%
    10:00 +34°C° 0 mm 5 mps 745 mmHg 28%
    11:00 +38°C° 0 mm 6 mps 745 mmHg 24%
    12:00 +39°C° 0 mm 5 mps 744 mmHg 22%
    13:00 +40°C° 0 mm 5 mps 744 mmHg 19%
    14:00 +41°C° 0 mm 5 mps 743 mmHg 17%
    15:00 +41°C° 0 mm 5 mps 743 mmHg 17%
    16:00 +40°C° 0 mm 4 mps 742 mmHg 17%
    17:00 +40°C° 0 mm 4 mps 741 mmHg 16%
    18:00 +37°C° 0 mm 5 mps 742 mmHg 19%
    19:00 +34°C° 0 mm 5 mps 742 mmHg 22%
    20:00 +30°C° 0 mm 5 mps 742 mmHg 25%
    21:00 +29°C° 0 mm 5 mps 742 mmHg 27%
    22:00 +29°C° 0 mm 5 mps 743 mmHg 29%
    23:00 +28°C° 0 mm 4 mps 743 mmHg 31%

    2 March, Monday

    Time Temperature Precipitation Wind Pressure Humidity
    00:00 +27°C° 0 mm 4 mps 743 mmHg 34%
    01:00 +26°C° 0 mm 3 mps 743 mmHg 37%
    02:00 +25°C° 0 mm 3 mps 743 mmHg 40%
    03:00 +24°C° 0 mm 3 mps 743 mmHg 43%
    04:00 +24°C° 0 mm 2 mps 743 mmHg 46%
    05:00 +23°C° 0 mm 2 mps 742 mmHg 48%
    06:00 +24°C° 0 mm 3 mps 743 mmHg 46%
    07:00 +26°C° 0 mm 3 mps 743 mmHg 44%
    08:00 +27°C° 0 mm 3 mps 744 mmHg 42%
    09:00 +30°C° 0 mm 4 mps 744 mmHg 37%
    10:00 +34°C° 0 mm 5 mps 743 mmHg 32%
    11:00 +36°C° 0 mm 6 mps 743 mmHg 28%
    12:00 +39°C° 0 mm 6 mps 743 mmHg 25%
    13:00 +40°C° 0 mm 5 mps 742 mmHg 22%
    14:00 +41°C° 0 mm 5 mps 741 mmHg 20%
    15:00 +41°C° 0 mm 5 mps 740 mmHg 20%
    16:00 +41°C° 0 mm 5 mps 740 mmHg 19%
    17:00 +41°C° 0 mm 5 mps 739 mmHg 19%
    18:00 +37°C° 0 mm 4 mps 739 mmHg 22%
    19:00 +35°C° 0 mm 3 mps 739 mmHg 26%
    20:00 +31°C° 0 mm 3 mps 739 mmHg 29%
    21:00 +30°C° 0 mm 3 mps 740 mmHg 31%
    22:00 +29°C° 0 mm 4 mps 740 mmHg 32%
    23:00 +28°C° 0 mm 4 mps 740 mmHg 34%
    Show more